Date String (YYYY-MM-DD hh:mm:ss) UTC,Instrument flags,absolute air pressure of the measurement (hPa),sample flow rate (lpm),inlet stack bypass flow (lpm),air temperature of the measurement (°C),ambient temperature measured by the external sensor (°C),aerosol sample conditioner tube jacket temperature (°C),OPC LED temperature (°C),internal box temperature (°C),relative humidity of the measurement (%),span deviation,mass concentration of particles derived from Lorenz-Mie calculation of OPC scattering (μg/m³),mass concentration of particles derived from Lorenz-Mie calculation of OPC scattering (μg/m³),mass concentration of particles derived from Lorenz-Mie calculation of OPC scattering (μg/m³)
DateTimeUTC,F1_M11,P_M11,Q1_M11,Q2_M11,T1_M11,T2_M11,T3_M11,T4_M11,T5_M11,U1_M11,ZSPAN_M11,X2_M11,X0_M11,X1_M11
2023-06-08 20:00:00,SystemResetWarning,0830.0,5.00,000.00,029.3,027.8,000.0,037.8,030.9,26.3,0000.0,0003.17,0006.47,0002.73
2023-06-08 20:01:00,SystemResetWarning,0830.0,5.00,000.00,029.4,027.6,000.0,037.8,031.0,26.1,0000.0,0003.18,0006.84,0002.73
2023-06-08 20:02:00,SystemResetWarning,0830.0,4.99,000.00,029.4,025.9,000.0,037.7,031.0,27.0,0000.0,0003.19,0006.26,0002.74
2023-06-08 20:03:00,SystemResetWarning,0830.0,5.00,000.00,029.4,025.2,000.0,037.7,031.0,27.3,0000.0,0003.22,0006.04,0002.76
2023-06-08 20:04:00,SystemResetWarning,0830.0,5.01,000.00,029.3,025.4,000.0,037.7,030.7,27.2,0000.0,0003.25,0005.97,0002.78
2023-06-08 20:05:00,SystemResetWarning,0830.0,5.00,000.00,029.2,025.7,000.0,037.7,030.6,26.8,0000.0,0003.25,0006.74,0002.79
2023-06-08 20:06:00,SystemResetWarning,0830.0,5.00,000.00,029.2,026.1,000.0,037.7,030.6,27.6,0000.0,0003.25,0006.71,0002.80
2023-06-08 20:07:00,SystemResetWarning,0830.0,5.00,000.00,029.2,026.5,000.0,037.7,030.7,27.4,0000.0,0003.25,0006.70,0002.81
2023-06-08 20:08:00,SystemResetWarning,0830.0,5.00,000.00,029.2,026.8,000.0,037.7,030.7,27.2,0000.0,0003.24,0006.64,0002.81
2023-06-08 20:09:00,SystemResetWarning,0830.0,5.00,000.00,029.2,027.1,000.0,037.7,030.7,26.5,0000.0,0003.22,0006.52,0002.81
2023-06-08 20:10:00,SystemResetWarning,0830.1,5.00,000.00,029.2,027.4,000.0,037.7,030.8,26.5,0000.0,0003.23,0006.51,0002.82
2023-06-08 20:11:00,SystemResetWarning,0830.0,5.00,000.00,029.3,027.6,000.0,037.8,030.8,26.9,0000.0,0003.24,0006.42,0002.83
2023-06-08 20:12:00,SystemResetWarning,0830.0,4.99,000.00,029.3,027.7,000.0,037.8,030.9,27.2,0000.0,0003.26,0005.64,0002.84
2023-06-08 20:13:00,SystemResetWarning,0830.0,4.99,000.00,029.3,027.8,000.0,037.8,031.0,26.1,0000.0,0003.27,0006.49,0002.87
2023-06-08 20:14:00,SystemResetWarning,0830.0,5.00,000.00,029.4,026.4,000.0,037.8,031.0,25.9,0000.0,0003.28,0006.46,0002.88
2023-06-08 20:15:00,SystemResetWarning,0830.0,5.00,000.00,029.3,025.2,000.0,037.7,030.9,26.1,0000.0,0003.30,0006.43,0002.88
2023-06-08 20:16:00,SystemResetWarning,0830.0,5.02,000.00,029.3,025.4,000.0,037.7,030.8,25.5,0000.0,0003.30,0005.76,0002.85
2023-06-08 20:17:00,SystemResetWarning,0829.9,5.00,000.00,029.2,025.7,000.0,037.7,030.6,26.3,0000.0,0003.33,0006.17,0002.82
2023-06-08 20:18:00,SystemResetWarning,0829.9,4.99,000.00,029.2,026.0,000.0,037.7,030.6,25.4,0000.0,0003.34,0006.31,0002.80
2023-06-08 20:19:00,SystemResetWarning,0829.9,5.00,000.00,029.2,026.4,000.0,037.7,030.6,26.2,0000.0,0003.34,0006.39,0002.80
2023-06-08 20:20:00,SystemResetWarning,0829.9,5.01,000.00,029.2,026.8,000.0,037.7,030.7,26.5,0000.0,0003.37,0006.70,0002.83
2023-06-08 20:21:00,SystemResetWarning,0829.9,5.01,000.00,029.2,027.1,000.0,037.7,030.8,27.3,0000.0,0003.39,0007.40,0002.84
2023-06-08 20:22:00,SystemResetWarning,0829.9,5.00,000.00,029.2,027.3,000.0,037.7,030.8,27.3,0000.0,0003.37,0007.52,0002.83
2023-06-08 20:23:00,SystemResetWarning,0829.9,4.99,000.00,029.3,027.6,000.0,037.7,030.9,27.1,0000.0,0003.34,0007.72,0002.82
2023-06-08 20:24:00,SystemResetWarning,0830.0,5.00,000.00,029.3,027.7,000.0,037.8,030.9,26.2,0000.0,0003.30,0007.65,0002.77
2023-06-08 20:25:00,SystemResetWarning,0830.0,5.00,000.00,029.3,027.9,000.0,037.8,031.0,25.6,0000.0,0003.29,0007.69,0002.74
2023-06-08 20:26:00,SystemResetWarning,0830.0,4.99,000.00,029.4,027.8,000.0,037.8,031.0,25.8,0000.0,0003.26,0007.67,0002.72
2023-06-08 20:27:00,SystemResetWarning,0830.0,4.99,000.00,029.4,026.1,000.0,037.7,031.0,26.8,0000.0,0003.23,0007.71,0002.72
2023-06-08 20:28:00,SystemResetWarning,0830.0,5.01,000.00,029.4,025.3,000.0,037.7,031.0,27.0,0000.0,0003.22,0007.71,0002.73
2023-06-08 20:29:00,SystemResetWarning,0830.0,5.01,000.00,029.3,025.5,000.0,037.7,030.8,26.1,0000.0,0003.19,0007.57,0002.74
2023-06-08 20:30:00,SystemResetWarning,0830.0,4.99,000.00,029.2,025.8,000.0,037.7,030.7,26.4,0000.0,0003.19,0007.57,0002.76
2023-06-08 20:31:00,SystemResetWarning,0829.9,5.00,000.00,029.2,026.2,000.0,037.7,030.7,27.5,0000.0,0003.20,0007.55,0002.74
2023-06-08 20:32:00,SystemResetWarning,0830.0,5.02,000.00,029.2,026.6,000.0,037.7,030.7,26.6,0000.0,0003.19,0007.11,0002.74
2023-06-08 20:33:00,SystemResetWarning,0829.9,5.00,000.00,029.2,026.9,000.0,037.7,030.7,26.6,0000.0,0003.21,0006.86,0002.76
2023-06-08 20:34:00,SystemResetWarning,0830.0,4.99,000.00,029.2,027.2,000.0,037.8,030.8,26.7,0000.0,0003.25,0006.81,0002.79
2023-06-08 20:35:00,SystemResetWarning,0830.0,5.00,000.00,029.3,027.4,000.0,037.8,030.8,26.3,0000.0,0003.30,0006.37,0002.83
2023-06-08 20:36:00,SystemResetWarning,0830.0,5.00,000.00,029.3,027.6,000.0,037.8,030.9,26.3,0000.0,0003.33,0007.07,0002.88
2023-06-08 20:37:00,SystemResetWarning,0829.9,5.00,000.00,029.3,027.8,000.0,037.8,030.9,26.4,0000.0,0003.33,0007.08,0002.90
2023-06-08 20:38:00,SystemResetWarning,0829.9,5.00,000.00,029.4,027.9,000.0,037.8,031.0,26.1,0000.0,0003.36,0007.14,0002.94
2023-06-08 20:39:00,SystemResetWarning,0829.9,4.99,000.00,029.4,027.6,000.0,037.8,031.0,26.5,0000.0,0003.37,0007.37,0002.96
2023-06-08 20:40:00,SystemResetWarning,0829.9,5.00,000.00,029.4,025.6,000.0,037.8,031.0,26.7,0000.0,0003.39,0007.79,0002.96
2023-06-08 20:41:00,SystemResetWarning,0829.9,5.01,000.00,029.3,024.2,000.0,037.7,030.9,25.8,0000.0,0003.41,0007.84,0002.97
2023-06-08 20:42:00,SystemResetWarning,0829.9,5.01,000.00,029.3,024.3,000.0,037.7,030.7,26.3,0000.0,0003.39,0007.91,0002.95
2023-06-08 20:43:00,SystemResetWarning,0829.9,4.99,000.00,029.2,024.7,000.0,037.7,030.5,25.3,0000.0,0003.39,0007.93,0002.93
2023-06-08 20:44:00,SystemResetWarning,0829.9,5.00,000.00,029.1,025.2,000.0,037.7,030.5,25.7,0000.0,0003.40,0008.22,0002.91
2023-06-08 20:45:00,SystemResetWarning,0829.9,5.00,000.00,029.1,025.7,000.0,037.7,030.5,25.6,0000.0,0003.38,0008.36,0002.88
2023-06-08 20:46:00,SystemResetWarning,0829.9,5.01,000.00,029.1,026.2,000.0,037.7,030.6,25.8,0000.0,0003.34,0008.12,0002.86
2023-06-08 20:47:00,SystemResetWarning,0829.9,5.01,000.00,029.1,026.6,000.0,037.6,030.6,26.3,0000.0,0003.31,0007.59,0002.83
2023-06-08 20:48:00,SystemResetWarning,0829.9,5.00,000.00,029.1,026.9,000.0,037.7,030.6,25.6,0000.0,0003.29,0007.53,0002.80
2023-06-08 20:49:00,SystemResetWarning,0829.9,4.99,000.00,029.1,027.2,000.0,037.7,030.7,25.4,0000.0,0003.26,0007.50,0002.77
2023-06-08 20:50:00,SystemResetWarning,0829.9,4.99,000.00,029.2,027.4,000.0,037.7,030.8,25.6,0000.0,0003.24,0007.04,0002.74
2023-06-08 20:51:00,SystemResetWarning,0829.9,5.00,000.00,029.2,027.7,000.0,037.7,030.8,25.6,0000.0,0003.23,0006.42,0002.72
2023-06-08 20:52:00,SystemResetWarning,0830.0,5.01,000.00,029.2,027.8,000.0,037.7,030.9,25.4,0000.0,0003.21,0006.42,0002.70
2023-06-08 20:53:00,SystemResetWarning,0830.0,5.01,000.00,029.3,028.0,000.0,037.7,030.9,25.4,0000.0,0003.20,0006.01,0002.69
2023-06-08 20:54:00,SystemResetWarning,0830.0,4.99,000.00,029.3,028.1,000.0,037.7,030.9,25.1,0000.0,0003.16,0005.79,0002.69
2023-06-08 20:55:00,SystemResetWarning,0830.0,4.99,000.00,029.4,028.2,000.0,037.8,031.0,25.1,0000.0,0003.16,0005.35,0002.68
2023-06-08 20:56:00,SystemResetWarning,0830.0,5.00,000.00,029.4,026.8,000.0,037.7,031.0,24.7,0000.0,0003.16,0004.90,0002.67
2023-06-08 20:57:00,SystemResetWarning,0830.0,5.00,000.00,029.4,025.4,000.0,037.7,031.0,25.0,0000.0,0003.20,0005.25,0002.68
2023-06-08 20:58:00,SystemResetWarning,0829.9,5.00,000.00,029.3,025.4,000.0,037.7,030.8,25.8,0000.0,0003.22,0006.03,0002.67
2023-06-08 20:59:00,SystemResetWarning,0829.9,5.02,000.00,029.3,025.7,000.0,037.7,030.7,25.1,0000.0,0003.24,0007.11,0002.69
